Location: Prairie View Elementary School
(39.8322°N, 99.5698°W)
Time: 12:39:43
(UTC+00:00)

Meteor 1-18 Rocket - Pass Details

Date: 08 December 2019
Orbit: 837 x 909 km, 81.2° (Epoch: 25 January)

Event Time Altitude Azimuth Distance (km) Brightness Sun altitude
Rises 01:24:09 0° 187° (S) 3,478 7.6 -24.4°
Reaches altitude 10° 01:26:36 10° 187° (S) 2,533 6.9 -24.9°
Maximum altitude 01:32:22 90° 157° (SSE) 876 4.1 -26.0°
Enters shadow 01:34:25 42° 9° (N) 1,218 4.8 -26.3°
